Find Starlink 3198

NORAD ID: 49763 Int'l Des: 2021-115 Owner: SPXS Country: US Constellation: starlink operational
LEOCIRCULAR

リアルタイム位置

3D地球を読み込み中...

Starlink 3198について

説明を読み込み中...

次回通過

Passes for default location (London). Set your location on the main map for personalized predictions.

高度履歴

Loading altitude history...

軌道要素

1 49763U 21115AR 26119.83546359 .00000114 00000-0 25281-4 0 9999
2 49763 53.2182 269.5186 0001259 93.1997 266.9139 15.08836150243400
Epoch: Apr 29, 2026 • Age: 9 hours

現在のステータス

高度 559.2 km
速度 7.58 km/s
衛星直下点 -53.28°S, 122.77°W
打ち上げ日 Dec 2, 2021
運用期間 4.4 years
タイプ internet

技術仕様

分類 Payload
質量 290.00 kg
乾燥質量 270.00 kg
総質量 290.00 kg
長さ 0.20 m
直径 2.80 m
スパン 9.00 m
形状 Box + pan
製造者 SPXS
バスタイプ Starlink
フェーズステータス In Orbit
所有者/国 SPXS/US

Most Searched